Location: Brad
(46.1333°N, 22.7833°E)
Time: 03:57:08
(UTC+00:00)

Cosmos 2227 - Pass Details

Date: 03 February 2023
Orbit: 833 x 862 km, 71.0° (Epoch: 29 March)

Event Time Altitude Azimuth Distance (km) Brightness Sun altitude
Rises 16:11:06 0° 333° (NNW) 3,450 7.5 -6.5°
Reaches altitude 10° 16:13:34 10° 333° (NNW) 2,510 6.8 -6.9°
Maximum altitude 16:19:22 89° 246° (WSW) 869 4.3 -7.9°
Drops below altitude 10° 16:25:07 10° 156° (SSE) 2,492 6.6 -8.8°
Sets 16:27:33 0° 156° (SSE) 3,422 7.3 -9.2°
